This demonstration page uses our WeatherBlox Daily Observations layout. Learn more.

Left ArrowRight Arrow

34.16533, -84.80231

Hourly Observations for August 12, 2019

Temp ( °F °C ) Dew Point ( °F °C ) Humidity (%) Winds ( mph kmh ) Pressure ( in mb ) Visibility ( mi km ) Precip ( " mm )
12:53 am 00:53 Clear 75 23.9 69 20.6 82 82 Calm 29.93 1014 10 16 0.00 0.00
2:53 am 02:53 Clear 74 23.3 69 20.6 85 85 Calm 29.93 1014 10 16 0.00 0.00
3:53 am 03:53 Clear 74 23.3 70 21.1 88 88 Calm 29.92 1013 10 16 0.00 0.00
4:53 am 04:53 Clear 73 22.8 70 21.1 90 90 Calm 29.92 1013 9 14 0.00 0.00
5:53 am 05:53 Clear 75 23.9 72 22.2 90 90 Calm 29.93 1014 9 14 0.00 0.00
6:53 am 06:53 Clear 73 22.8 71 21.7 94 94 Calm 29.95 1014 8 13 0.00 0.00
7:53 am 07:53 Sunny 78 25.6 72 22.2 82 82 Calm 29.96 1015 10 16 0.00 0.00
8:53 am 08:53 Sunny 82 27.8 72 22.2 72 72 ENE 3 6 29.98 1015 10 16 0.00 0.00
9:53 am 09:53 Sunny 85 29.4 73 22.8 68 68 E 5 7 29.97 1015 10 16 0.00 0.00
10:53 am 10:53 Partly Cloudy 87 30.6 75 23.9 67 67 SSE 3 6 29.98 1015 10 16 0.00 0.00
11:53 am 11:53 Sunny 91 32.8 75 23.9 59 59 E 3 6 29.97 1015 10 16 0.00 0.00
12:53 pm 12:53 Mostly Cloudy 93 33.9 74 23.3 54 54 SE 6 9 29.96 1015 10 16 0.00 0.00
1:53 pm 13:53 Mostly Cloudy 95 35 73 22.8 49 49 VRB 5 7 29.95 1014 10 16 0.00 0.00
2:53 pm 14:53 Partly Cloudy 95 35 71 21.7 46 46 VRB 5 7 29.93 1014 10 16 0.00 0.00
3:53 pm 15:53 Mostly Cloudy 96 35.6 70 21.1 43 43 VRB 5 7 29.89 1012 10 16 0.00 0.00
4:53 pm 16:53 Sunny 96 35.6 70 21.1 43 43 Calm 29.87 1012 10 16 0.00 0.00
5:53 pm 17:53 Partly Cloudy 94 34.4 72 22.2 49 49 ENE 6 9 29.88 1012 10 16 0.00 0.00
6:53 pm 18:53 Sunny 95 35 72 22.2 47 47 NE 3 6 29.87 1012 10 16 0.00 0.00
7:53 pm 19:53 Sunny 91 32.8 74 23.3 57 57 Calm 29.87 1011 10 16 0.00 0.00
8:53 pm 20:53 Clear 84 28.9 76 24.4 77 77 Calm 29.87 1012 10 16 0.00 0.00
9:53 pm 21:53 Clear 82 27.8 75 23.9 79 79 Calm 29.89 1012 10 16 0.00 0.00
10:53 pm 22:53 Clear 84 28.9 74 23.3 72 72 SSE 5 7 29.90 1012 10 16 0.00 0.00
11:53 pm 23:53 Clear 83 28.3 74 23.3 74 74 Calm 29.91 1013 10 16 0.00 0.00

Powered by AerisWeather